Time,TemperatureF,DewpointF,PressureIn,WindDirection,WindDirectionDegrees,WindSpeedMPH,WindSpeedGustMPH,Humidity,HourlyPrecipIn,Conditions,Clouds,dailyrainin,SoftwareType,DateUTC
2013-06-05 00:02:00,54.5,37.8,29.82,NW,315,3.0,4.0,53,0.00,,,0.00,meteohub,2013-06-05 07:02:00,
2013-06-05 00:08:00,54.3,37.6,29.82,West,270,2.0,4.0,53,0.00,,,0.00,meteohub,2013-06-05 07:08:00,
2013-06-05 00:13:00,54.3,37.6,29.82,West,270,3.0,4.0,53,0.00,,,0.00,meteohub,2013-06-05 07:13:00,
2013-06-05 00:18:00,54.3,37.6,29.82,West,270,1.0,4.0,53,0.00,,,0.00,meteohub,2013-06-05 07:18:00,
2013-06-05 00:23:00,54.1,37.4,29.82,West,270,2.0,4.0,53,0.00,,,0.00,meteohub,2013-06-05 07:23:00,
2013-06-05 00:28:00,54.1,37.4,29.81,East,90,1.0,3.0,53,0.00,,,0.00,meteohub,2013-06-05 07:28:00,
2013-06-05 00:33:00,54.1,37.4,29.81,North,0,2.0,2.0,53,0.00,,,0.00,meteohub,2013-06-05 07:33:00,
2013-06-05 00:39:00,54.1,37.4,29.81,West,270,2.0,2.0,53,0.00,,,0.00,meteohub,2013-06-05 07:39:00,
2013-06-05 00:44:00,54.3,37.6,29.81,West,270,2.0,3.0,53,0.00,,,0.00,meteohub,2013-06-05 07:44:00,
2013-06-05 00:49:00,54.3,37.6,29.81,West,270,2.0,3.0,53,0.00,,,0.00,meteohub,2013-06-05 07:49:00,
2013-06-05 00:54:00,54.3,37.6,29.81,West,270,2.0,3.0,53,0.00,,,0.00,meteohub,2013-06-05 07:54:00,
2013-06-05 01:00:00,54.1,37.9,29.81,West,270,2.0,3.0,54,0.00,,,0.00,meteohub,2013-06-05 08:00:00,
2013-06-05 01:05:00,54.1,37.9,29.81,West,270,2.0,2.0,54,0.00,,,0.00,meteohub,2013-06-05 08:05:00,
2013-06-05 01:10:00,54.1,37.9,29.81,West,270,0.0,2.0,54,0.00,,,0.00,meteohub,2013-06-05 08:10:00,
2013-06-05 01:15:00,54.1,37.9,29.81,SE,135,0.0,2.0,54,0.00,,,0.00,meteohub,2013-06-05 08:15:00,
2013-06-05 01:21:00,54.1,37.9,29.81,South,180,1.0,2.0,54,0.00,,,0.00,meteohub,2013-06-05 08:21:00,
2013-06-05 01:26:00,54.1,37.9,29.81,South,180,2.0,2.0,54,0.00,,,0.00,meteohub,2013-06-05 08:26:00,
2013-06-05 01:31:00,54.0,37.8,29.81,South,180,1.0,2.0,54,0.00,,,0.00,meteohub,2013-06-05 08:31:00,
2013-06-05 01:36:00,54.1,37.9,29.81,SW,225,1.0,2.0,54,0.00,,,0.00,meteohub,2013-06-05 08:36:00,
2013-06-05 01:42:00,54.0,37.8,29.81,SW,225,0.0,2.0,54,0.00,,,0.00,meteohub,2013-06-05 08:42:00,
2013-06-05 01:47:00,54.1,37.9,29.81,SW,225,2.0,2.0,54,0.00,,,0.00,meteohub,2013-06-05 08:47:00,
2013-06-05 01:52:00,54.1,37.9,29.81,West,270,2.0,2.0,54,0.00,,,0.00,meteohub,2013-06-05 08:52:00,
2013-06-05 01:57:00,54.0,37.8,29.81,West,270,2.0,2.0,54,0.00,,,0.00,meteohub,2013-06-05 08:57:00,
2013-06-05 02:02:00,54.0,37.8,29.81,South,180,1.0,2.0,54,0.00,,,0.00,meteohub,2013-06-05 09:02:00,
2013-06-05 02:07:00,53.8,37.0,29.81,South,180,2.0,2.0,53,0.00,,,0.00,meteohub,2013-06-05 09:07:00,
2013-06-05 02:12:00,53.8,37.0,29.81,South,180,1.0,2.0,53,0.00,,,0.00,meteohub,2013-06-05 09:12:00,
2013-06-05 02:17:00,53.6,36.9,29.81,South,180,2.0,2.0,53,0.00,,,0.00,meteohub,2013-06-05 09:17:00,
2013-06-05 02:22:00,53.4,37.2,29.81,South,180,1.0,2.0,54,0.00,,,0.00,meteohub,2013-06-05 09:22:00,
2013-06-05 02:27:00,53.4,37.2,29.81,South,180,1.0,2.0,54,0.00,,,0.00,meteohub,2013-06-05 09:27:00,
2013-06-05 02:32:00,53.2,36.5,29.81,South,180,2.0,2.0,53,0.00,,,0.00,meteohub,2013-06-05 09:32:00,
2013-06-05 02:37:00,53.2,37.0,29.80,SE,135,1.0,2.0,54,0.00,,,0.00,meteohub,2013-06-05 09:37:00,
2013-06-05 02:42:00,53.1,36.3,29.80,West,270,0.0,2.0,53,0.00,,,0.00,meteohub,2013-06-05 09:42:00,
2013-06-05 02:47:00,52.9,36.1,29.80,West,270,2.0,2.0,53,0.00,,,0.00,meteohub,2013-06-05 09:47:00,
2013-06-05 02:52:00,52.7,36.0,29.80,West,270,2.0,2.0,53,0.00,,,0.00,meteohub,2013-06-05 09:52:00,
2013-06-05 02:57:00,52.5,36.0,29.80,West,270,2.0,2.0,53,0.00,,,0.00,meteohub,2013-06-05 09:57:00,
2013-06-05 03:02:00,52.5,36.0,29.80,SW,225,2.0,2.0,53,0.00,,,0.00,meteohub,2013-06-05 10:02:00,
2013-06-05 03:07:00,52.5,36.0,29.80,SW,225,2.0,2.0,53,0.00,,,0.00,meteohub,2013-06-05 10:07:00,
2013-06-05 03:12:00,52.2,35.6,29.80,West,270,2.0,2.0,53,0.00,,,0.00,meteohub,2013-06-05 10:12:00,
2013-06-05 03:17:00,52.0,35.4,29.80,West,270,2.0,2.0,53,0.00,,,0.00,meteohub,2013-06-05 10:17:00,
2013-06-05 03:22:00,51.6,35.6,29.80,West,270,2.0,2.0,54,0.00,,,0.00,meteohub,2013-06-05 10:22:00,
2013-06-05 03:27:00,51.4,35.4,29.80,SW,225,0.0,2.0,54,0.00,,,0.00,meteohub,2013-06-05 10:27:00,
2013-06-05 03:32:00,51.4,35.4,29.80,WSW,248,2.0,2.0,54,0.00,,,0.00,meteohub,2013-06-05 10:32:00,
2013-06-05 03:37:00,51.4,35.4,29.80,South,180,2.0,2.0,54,0.00,,,0.00,meteohub,2013-06-05 10:37:00,
2013-06-05 03:42:00,51.3,34.7,29.80,SE,135,1.0,2.0,53,0.00,,,0.00,meteohub,2013-06-05 10:42:00,
2013-06-05 03:47:00,51.1,35.1,29.80,West,270,2.0,2.0,54,0.00,,,0.00,meteohub,2013-06-05 10:47:00,
2013-06-05 03:52:00,51.1,35.1,29.80,West,270,2.0,3.0,54,0.00,,,0.00,meteohub,2013-06-05 10:52:00,
2013-06-05 03:57:00,50.9,34.9,29.80,SW,225,2.0,3.0,54,0.00,,,0.00,meteohub,2013-06-05 10:57:00,
2013-06-05 04:03:00,50.7,34.7,29.80,SW,225,2.0,3.0,54,0.00,,,0.00,meteohub,2013-06-05 11:03:00,
2013-06-05 04:08:00,50.5,34.5,29.80,SW,225,2.0,2.0,54,0.00,,,0.00,meteohub,2013-06-05 11:08:00,
2013-06-05 04:13:00,50.4,34.3,29.80,SW,225,2.0,2.0,54,0.00,,,0.00,meteohub,2013-06-05 11:13:00,
2013-06-05 04:18:00,50.4,34.3,29.80,West,270,2.0,3.0,54,0.00,,,0.00,meteohub,2013-06-05 11:18:00,
2013-06-05 04:23:00,50.4,34.3,29.80,West,270,2.0,3.0,54,0.00,,,0.00,meteohub,2013-06-05 11:23:00,
2013-06-05 04:29:00,50.2,34.2,29.80,SW,225,1.0,3.0,54,0.00,,,0.00,meteohub,2013-06-05 11:29:00,
2013-06-05 04:34:00,50.2,34.2,29.81,WNW,293,2.0,3.0,54,0.00,,,0.00,meteohub,2013-06-05 11:34:00,
2013-06-05 04:39:00,50.2,34.7,29.81,West,270,2.0,2.0,55,0.00,,,0.00,meteohub,2013-06-05 11:39:00,
2013-06-05 04:44:00,50.0,34.5,29.81,West,270,1.0,2.0,55,0.00,,,0.00,meteohub,2013-06-05 11:44:00,
2013-06-05 04:49:00,50.0,34.5,29.81,West,270,2.0,2.0,55,0.00,,,0.00,meteohub,2013-06-05 11:49:00,
2013-06-05 04:55:00,50.0,34.5,29.81,West,270,2.0,2.0,55,0.00,,,0.00,meteohub,2013-06-05 11:55:00,
2013-06-05 05:00:00,50.2,34.7,29.81,West,270,1.0,2.0,55,0.00,,,0.00,meteohub,2013-06-05 12:00:00,
2013-06-05 05:05:00,50.2,34.7,29.81,West,270,1.0,2.0,55,0.00,,,0.00,meteohub,2013-06-05 12:05:00,
2013-06-05 05:10:00,50.4,34.9,29.81,South,180,1.0,2.0,55,0.00,,,0.00,meteohub,2013-06-05 12:10:00,
2013-06-05 05:15:00,50.5,35.4,29.81,West,270,1.0,2.0,56,0.00,,,0.00,meteohub,2013-06-05 12:15:00,
2013-06-05 05:21:00,50.7,35.6,29.81,West,270,1.0,2.0,56,0.00,,,0.00,meteohub,2013-06-05 12:21:00,
2013-06-05 05:26:00,50.9,35.8,29.81,West,270,0.0,2.0,56,0.00,,,0.00,meteohub,2013-06-05 12:26:00,
2013-06-05 05:31:00,50.9,35.8,29.81,South,180,2.0,2.0,56,0.00,,,0.00,meteohub,2013-06-05 12:31:00,
2013-06-05 05:37:00,51.1,36.0,29.81,West,270,0.0,2.0,56,0.00,,,0.00,meteohub,2013-06-05 12:37:00,
2013-06-05 05:42:00,51.3,36.1,29.81,South,180,0.0,2.0,56,0.00,,,0.00,meteohub,2013-06-05 12:42:00,
2013-06-05 05:47:00,51.4,36.3,29.82,South,180,2.0,2.0,56,0.00,,,0.00,meteohub,2013-06-05 12:47:00,
2013-06-05 05:52:00,51.6,36.9,29.82,South,180,1.0,2.0,57,0.00,,,0.00,meteohub,2013-06-05 12:52:00,
2013-06-05 05:57:00,51.8,36.7,29.82,West,270,2.0,2.0,56,0.00,,,0.00,meteohub,2013-06-05 12:57:00,
2013-06-05 06:02:00,52.0,36.9,29.82,West,270,2.0,2.0,56,0.00,,,0.00,meteohub,2013-06-05 13:02:00,
2013-06-05 06:07:00,52.2,36.9,29.81,South,180,1.0,2.0,56,0.00,,,0.00,meteohub,2013-06-05 13:07:00,
2013-06-05 06:12:00,52.3,37.0,29.82,West,270,0.0,2.0,56,0.00,,,0.00,meteohub,2013-06-05 13:12:00,
2013-06-05 06:17:00,52.3,37.0,29.82,West,270,1.0,2.0,56,0.00,,,0.00,meteohub,2013-06-05 13:17:00,
2013-06-05 06:22:00,52.3,37.0,29.82,West,270,2.0,2.0,56,0.00,,,0.00,meteohub,2013-06-05 13:22:00,
2013-06-05 06:27:00,52.3,37.0,29.82,SW,225,1.0,2.0,56,0.00,,,0.00,meteohub,2013-06-05 13:27:00,
2013-06-05 06:33:00,52.5,37.2,29.81,West,270,2.0,2.0,56,0.00,,,0.00,meteohub,2013-06-05 13:33:00,
2013-06-05 06:38:00,52.7,37.4,29.81,West,270,2.0,2.0,56,0.00,,,0.00,meteohub,2013-06-05 13:38:00,
2013-06-05 06:43:00,52.7,37.4,29.82,East,90,2.0,2.0,56,0.00,,,0.00,meteohub,2013-06-05 13:43:00,
2013-06-05 06:48:00,52.9,37.6,29.82,West,270,2.0,2.0,56,0.00,,,0.00,meteohub,2013-06-05 13:48:00,
2013-06-05 06:53:00,53.1,37.8,29.82,NW,315,0.0,2.0,56,0.00,,,0.00,meteohub,2013-06-05 13:53:00,
2013-06-05 06:59:00,53.2,37.9,29.82,West,270,0.0,2.0,56,0.00,,,0.00,meteohub,2013-06-05 13:59:00,
2013-06-05 07:04:00,53.4,38.1,29.82,NW,315,1.0,2.0,56,0.00,,,0.00,meteohub,2013-06-05 14:04:00,
2013-06-05 07:09:00,53.4,38.1,29.82,West,270,0.0,2.0,56,0.00,,,0.00,meteohub,2013-06-05 14:09:00,
2013-06-05 07:15:00,53.6,37.8,29.82,West,270,2.0,2.0,55,0.00,,,0.00,meteohub,2013-06-05 14:15:00,
2013-06-05 07:20:00,53.8,37.9,29.82,SW,225,1.0,2.0,55,0.00,,,0.00,meteohub,2013-06-05 14:20:00,
2013-06-05 07:25:00,54.0,38.1,29.82,South,180,2.0,2.0,55,0.00,,,0.00,meteohub,2013-06-05 14:25:00,
2013-06-05 07:30:00,54.0,37.8,29.82,SE,135,2.0,2.0,54,0.00,,,0.00,meteohub,2013-06-05 14:30:00,
2013-06-05 07:35:00,53.8,37.0,29.82,South,180,2.0,2.0,53,0.00,,,0.00,meteohub,2013-06-05 14:35:00,
2013-06-05 07:41:00,54.1,37.4,29.82,SE,135,0.0,2.0,53,0.00,,,0.00,meteohub,2013-06-05 14:41:00,
2013-06-05 07:46:00,54.3,37.6,29.82,West,270,4.0,4.0,53,0.00,,,0.00,meteohub,2013-06-05 14:46:00,
2013-06-05 07:51:00,54.1,37.4,29.82,NW,315,4.0,5.0,53,0.00,,,0.00,meteohub,2013-06-05 14:51:00,
2013-06-05 07:56:00,54.3,37.0,29.83,West,270,1.0,6.0,52,0.00,,,0.00,meteohub,2013-06-05 14:56:00,
2013-06-05 08:02:00,54.3,37.0,29.83,West,270,4.0,6.0,52,0.00,,,0.00,meteohub,2013-06-05 15:02:00,
2013-06-05 08:07:00,54.5,37.2,29.83,East,90,2.0,6.0,52,0.00,,,0.00,meteohub,2013-06-05 15:07:00,
2013-06-05 08:12:00,54.7,36.9,29.83,West,270,5.0,5.0,51,0.00,,,0.00,meteohub,2013-06-05 15:12:00,
2013-06-05 08:17:00,54.5,36.7,29.83,NW,315,4.0,5.0,51,0.00,,,0.00,meteohub,2013-06-05 15:17:00,
2013-06-05 08:22:00,54.5,36.7,29.83,NW,315,4.0,5.0,51,0.00,,,0.00,meteohub,2013-06-05 15:22:00,
2013-06-05 08:27:00,54.5,36.3,29.83,NW,315,4.0,5.0,50,0.00,,,0.00,meteohub,2013-06-05 15:27:00,
2013-06-05 08:32:00,54.9,37.0,29.83,West,270,4.0,5.0,51,0.00,,,0.00,meteohub,2013-06-05 15:32:00,
2013-06-05 08:37:00,54.9,36.5,29.83,West,270,4.0,5.0,50,0.00,,,0.00,meteohub,2013-06-05 15:37:00,
2013-06-05 08:42:00,54.9,36.1,29.83,West,270,3.0,5.0,49,0.00,,,0.00,meteohub,2013-06-05 15:42:00,
2013-06-05 08:48:00,55.0,36.1,29.84,SW,225,1.0,4.0,49,0.00,,,0.00,meteohub,2013-06-05 15:48:00,
2013-06-05 08:53:00,55.2,35.4,29.83,NW,315,4.0,4.0,47,0.00,,,0.00,meteohub,2013-06-05 15:53:00,
2013-06-05 08:58:00,55.4,36.0,29.84,West,270,2.0,4.0,48,0.00,,,0.00,meteohub,2013-06-05 15:58:00,
2013-06-05 09:03:00,55.4,36.0,29.84,West,270,5.0,5.0,48,0.00,,,0.00,meteohub,2013-06-05 16:03:00,
2013-06-05 09:08:00,55.2,35.4,29.84,West,270,4.0,6.0,47,0.00,,,0.00,meteohub,2013-06-05 16:08:00,
2013-06-05 09:14:00,55.4,35.4,29.84,West,270,4.0,6.0,47,0.00,,,0.00,meteohub,2013-06-05 16:14:00,
2013-06-05 09:19:00,55.4,35.4,29.84,SW,225,2.0,6.0,47,0.00,,,0.00,meteohub,2013-06-05 16:19:00,
2013-06-05 09:24:00,55.6,35.6,29.83,NW,315,2.0,5.0,47,0.00,,,0.00,meteohub,2013-06-05 16:24:00,
2013-06-05 09:29:00,55.9,36.0,29.83,NW,315,3.0,5.0,47,0.00,,,0.00,meteohub,2013-06-05 16:29:00,
2013-06-05 09:34:00,56.1,36.1,29.83,NW,315,3.0,5.0,47,0.00,,,0.00,meteohub,2013-06-05 16:34:00,
2013-06-05 09:39:00,56.1,36.1,29.83,NW,315,2.0,5.0,47,0.00,,,0.00,meteohub,2013-06-05 16:39:00,
2013-06-05 09:45:00,56.5,36.0,29.83,NW,315,4.0,5.0,46,0.00,,,0.00,meteohub,2013-06-05 16:45:00,
2013-06-05 09:50:00,56.5,36.5,29.83,North,0,2.0,5.0,47,0.00,,,0.00,meteohub,2013-06-05 16:50:00,
2013-06-05 09:55:00,56.5,36.0,29.83,West,270,6.0,6.0,46,0.00,,,0.00,meteohub,2013-06-05 16:55:00,
2013-06-05 10:00:00,56.7,36.7,29.83,NW,315,7.0,7.0,47,0.00,,,0.00,meteohub,2013-06-05 17:00:00,
2013-06-05 10:05:00,56.5,36.5,29.83,West,270,6.0,7.0,47,0.00,,,0.00,meteohub,2013-06-05 17:05:00,
2013-06-05 10:10:00,56.5,36.0,29.83,NW,315,4.0,7.0,46,0.00,,,0.00,meteohub,2013-06-05 17:10:00,
2013-06-05 10:16:00,56.7,36.1,29.83,NW,315,6.0,7.0,46,0.00,,,0.00,meteohub,2013-06-05 17:16:00,
2013-06-05 10:21:00,57.0,36.5,29.83,North,0,5.0,6.0,46,0.00,,,0.00,meteohub,2013-06-05 17:21:00,
2013-06-05 10:27:00,57.2,36.0,29.83,West,270,4.0,7.0,45,0.00,,,0.00,meteohub,2013-06-05 17:27:00,
2013-06-05 10:32:00,57.0,36.5,29.83,North,0,3.0,7.0,46,0.00,,,0.00,meteohub,2013-06-05 17:32:00,
2013-06-05 10:37:00,57.0,36.5,29.83,North,0,7.0,8.0,46,0.00,,,0.00,meteohub,2013-06-05 17:37:00,
2013-06-05 10:42:00,57.2,35.4,29.83,NW,315,6.0,9.0,44,0.00,,,0.00,meteohub,2013-06-05 17:42:00,
2013-06-05 10:47:00,57.6,35.8,29.83,NW,315,7.0,9.0,44,0.00,,,0.00,meteohub,2013-06-05 17:47:00,
2013-06-05 10:52:00,58.1,36.3,29.83,West,270,10.0,10.0,44,0.00,,,0.00,meteohub,2013-06-05 17:52:00,
2013-06-05 10:57:00,57.7,36.5,29.83,West,270,9.0,10.0,45,0.00,,,0.00,meteohub,2013-06-05 17:57:00,
2013-06-05 11:02:00,57.4,35.6,29.84,West,270,8.0,10.0,44,0.00,,,0.00,meteohub,2013-06-05 18:02:00,
2013-06-05 11:07:00,57.9,36.1,29.83,WNW,293,7.0,10.0,44,0.00,,,0.00,meteohub,2013-06-05 18:07:00,
2013-06-05 11:12:00,58.3,37.0,29.83,NW,315,4.0,9.0,45,0.00,,,0.00,meteohub,2013-06-05 18:12:00,
2013-06-05 11:17:00,58.3,36.5,29.83,NW,315,8.0,10.0,44,0.00,,,0.00,meteohub,2013-06-05 18:17:00,
2013-06-05 11:23:00,58.1,36.9,29.83,NW,315,10.0,10.0,45,0.00,,,0.00,meteohub,2013-06-05 18:23:00,
2013-06-05 11:28:00,58.5,36.7,29.83,West,270,10.0,13.0,44,0.00,,,0.00,meteohub,2013-06-05 18:28:00,
2013-06-05 11:33:00,58.5,37.2,29.83,NW,315,9.0,13.0,45,0.00,,,0.00,meteohub,2013-06-05 18:33:00,
2013-06-05 11:38:00,58.6,37.4,29.83,West,270,7.0,11.0,45,0.00,,,0.00,meteohub,2013-06-05 18:38:00,
2013-06-05 11:43:00,59.0,36.5,29.83,NW,315,11.0,13.0,43,0.00,,,0.00,meteohub,2013-06-05 18:43:00,
2013-06-05 11:48:00,59.0,37.0,29.83,North,0,12.0,13.0,44,0.00,,,0.00,meteohub,2013-06-05 18:48:00,
2013-06-05 11:54:00,58.6,36.9,29.84,NW,315,10.0,14.0,44,0.00,,,0.00,meteohub,2013-06-05 18:54:00,
2013-06-05 11:59:00,59.0,36.5,29.84,NW,315,10.0,14.0,43,0.00,,,0.00,meteohub,2013-06-05 18:59:00,
2013-06-05 12:04:00,58.6,37.4,29.83,NW,315,10.0,14.0,45,0.00,,,0.00,meteohub,2013-06-05 19:04:00,
2013-06-05 12:09:00,58.8,37.0,29.83,West,270,10.0,15.0,44,0.00,,,0.00,meteohub,2013-06-05 19:09:00,
2013-06-05 12:14:00,59.5,37.0,29.83,WNW,293,9.0,15.0,43,0.00,,,0.00,meteohub,2013-06-05 19:14:00,
2013-06-05 12:19:00,59.2,36.7,29.83,West,270,10.0,15.0,43,0.00,,,0.00,meteohub,2013-06-05 19:19:00,
2013-06-05 12:24:00,59.0,36.5,29.83,NW,315,11.0,13.0,43,0.00,,,0.00,meteohub,2013-06-05 19:24:00,
2013-06-05 12:30:00,59.0,36.5,29.83,NW,315,10.0,14.0,43,0.00,,,0.00,meteohub,2013-06-05 19:30:00,
2013-06-05 12:35:00,58.8,37.0,29.83,West,270,14.0,15.0,44,0.00,,,0.00,meteohub,2013-06-05 19:35:00,
2013-06-05 12:40:00,58.8,37.0,29.83,North,0,15.0,15.0,44,0.00,,,0.00,meteohub,2013-06-05 19:40:00,
2013-06-05 12:45:00,59.4,36.9,29.83,West,270,11.0,15.0,43,0.00,,,0.00,meteohub,2013-06-05 19:45:00,
2013-06-05 12:50:00,59.2,36.7,29.83,NW,315,12.0,15.0,43,0.00,,,0.00,meteohub,2013-06-05 19:50:00,
2013-06-05 12:56:00,59.0,36.5,29.83,NW,315,13.0,15.0,43,0.00,,,0.00,meteohub,2013-06-05 19:56:00,
2013-06-05 13:01:00,58.8,37.0,29.83,West,270,12.0,15.0,44,0.00,,,0.00,meteohub,2013-06-05 20:01:00,
2013-06-05 13:06:00,58.8,37.0,29.83,West,270,12.0,15.0,44,0.00,,,0.00,meteohub,2013-06-05 20:06:00,
2013-06-05 13:11:00,58.6,36.9,29.83,West,270,11.0,15.0,44,0.00,,,0.00,meteohub,2013-06-05 20:11:00,
2013-06-05 13:16:00,58.6,36.9,29.83,NW,315,13.0,15.0,44,0.00,,,0.00,meteohub,2013-06-05 20:16:00,
2013-06-05 13:21:00,58.6,36.9,29.83,West,270,15.0,17.0,44,0.00,,,0.00,meteohub,2013-06-05 20:21:00,
2013-06-05 13:26:00,58.3,36.5,29.83,NW,315,14.0,17.0,44,0.00,,,0.00,meteohub,2013-06-05 20:26:00,
2013-06-05 13:32:00,58.1,36.9,29.83,SW,225,12.0,16.0,45,0.00,,,0.00,meteohub,2013-06-05 20:32:00,
2013-06-05 13:37:00,58.3,36.5,29.83,NW,315,14.0,16.0,44,0.00,,,0.00,meteohub,2013-06-05 20:37:00,
2013-06-05 13:42:00,58.3,37.0,29.82,West,270,12.0,17.0,45,0.00,,,0.00,meteohub,2013-06-05 20:42:00,
2013-06-05 13:47:00,58.5,36.7,29.82,West,270,11.0,17.0,44,0.00,,,0.00,meteohub,2013-06-05 20:47:00,
2013-06-05 13:52:00,58.1,36.3,29.82,NW,315,14.0,17.0,44,0.00,,,0.00,meteohub,2013-06-05 20:52:00,
2013-06-05 13:57:00,58.3,36.5,29.82,NW,315,13.0,19.0,44,0.00,,,0.00,meteohub,2013-06-05 20:57:00,
2013-06-05 14:03:00,58.6,36.1,29.82,NW,315,11.0,19.0,43,0.00,,,0.00,meteohub,2013-06-05 21:03:00,
2013-06-05 14:08:00,58.8,37.0,29.82,West,270,15.0,19.0,44,0.00,,,0.00,meteohub,2013-06-05 21:08:00,
2013-06-05 14:13:00,58.5,36.7,29.82,West,270,13.0,17.0,44,0.00,,,0.00,meteohub,2013-06-05 21:13:00,
2013-06-05 14:18:00,58.8,37.0,29.82,NW,315,13.0,16.0,44,0.00,,,0.00,meteohub,2013-06-05 21:18:00,
2013-06-05 14:23:00,58.6,36.9,29.82,West,270,16.0,17.0,44,0.00,,,0.00,meteohub,2013-06-05 21:23:00,
2013-06-05 14:28:00,58.6,36.9,29.82,North,0,15.0,17.0,44,0.00,,,0.00,meteohub,2013-06-05 21:28:00,
2013-06-05 14:33:00,58.5,36.7,29.82,NW,315,11.0,18.0,44,0.00,,,0.00,meteohub,2013-06-05 21:33:00,
2013-06-05 14:39:00,58.5,36.7,29.82,West,270,14.0,18.0,44,0.00,,,0.00,meteohub,2013-06-05 21:39:00,
2013-06-05 14:44:00,59.2,36.7,29.82,SW,225,15.0,17.0,43,0.00,,,0.00,meteohub,2013-06-05 21:44:00,
2013-06-05 14:49:00,59.4,36.9,29.82,West,270,11.0,17.0,43,0.00,,,0.00,meteohub,2013-06-05 21:49:00,
2013-06-05 14:54:00,58.8,37.0,29.82,NW,315,11.0,17.0,44,0.00,,,0.00,meteohub,2013-06-05 21:54:00,
2013-06-05 14:59:00,58.6,36.9,29.82,West,270,15.0,19.0,44,0.00,,,0.00,meteohub,2013-06-05 21:59:00,
2013-06-05 15:05:00,58.6,36.9,29.82,West,270,15.0,19.0,44,0.00,,,0.00,meteohub,2013-06-05 22:05:00,
2013-06-05 15:10:00,58.6,36.9,29.82,NW,315,16.0,19.0,44,0.00,,,0.00,meteohub,2013-06-05 22:10:00,
2013-06-05 15:15:00,58.5,36.7,29.82,West,270,12.0,17.0,44,0.00,,,0.00,meteohub,2013-06-05 22:15:00,
2013-06-05 15:20:00,58.3,36.5,29.82,West,270,15.0,19.0,44,0.00,,,0.00,meteohub,2013-06-05 22:20:00,
2013-06-05 15:25:00,58.5,36.7,29.81,NW,315,15.0,19.0,44,0.00,,,0.00,meteohub,2013-06-05 22:25:00,
2013-06-05 15:30:00,58.3,36.5,29.81,West,270,17.0,19.0,44,0.00,,,0.00,meteohub,2013-06-05 22:30:00,
2013-06-05 15:36:00,58.5,37.2,29.81,West,270,16.0,18.0,45,0.00,,,0.00,meteohub,2013-06-05 22:36:00,
2013-06-05 15:41:00,58.6,36.9,29.81,NW,315,13.0,19.0,44,0.00,,,0.00,meteohub,2013-06-05 22:41:00,
2013-06-05 15:46:00,59.0,36.5,29.81,West,270,15.0,19.0,43,0.00,,,0.00,meteohub,2013-06-05 22:46:00,
2013-06-05 15:51:00,59.2,36.7,29.81,West,270,13.0,19.0,43,0.00,,,0.00,meteohub,2013-06-05 22:51:00,
2013-06-05 15:56:00,58.8,37.0,29.81,NW,315,17.0,18.0,44,0.00,,,0.00,meteohub,2013-06-05 22:56:00,
2013-06-05 16:01:00,58.8,37.0,29.81,West,270,15.0,18.0,44,0.00,,,0.00,meteohub,2013-06-05 23:01:00,
2013-06-05 16:07:00,58.5,36.7,29.81,West,270,13.0,18.0,44,0.00,,,0.00,meteohub,2013-06-05 23:07:00,
2013-06-05 16:12:00,58.5,36.7,29.80,North,0,12.0,18.0,44,0.00,,,0.00,meteohub,2013-06-05 23:12:00,
2013-06-05 16:17:00,57.9,36.1,29.80,West,270,15.0,19.0,44,0.00,,,0.00,meteohub,2013-06-05 23:17:00,
2013-06-05 16:22:00,57.6,35.8,29.81,West,270,16.0,19.0,44,0.00,,,0.00,meteohub,2013-06-05 23:22:00,
2013-06-05 16:27:00,57.4,35.6,29.81,West,270,15.0,19.0,44,0.00,,,0.00,meteohub,2013-06-05 23:27:00,
2013-06-05 16:32:00,57.2,35.4,29.81,West,270,14.0,19.0,44,0.00,,,0.00,meteohub,2013-06-05 23:32:00,
2013-06-05 16:37:00,57.2,35.4,29.81,West,270,11.0,17.0,44,0.00,,,0.00,meteohub,2013-06-05 23:37:00,
2013-06-05 16:42:00,57.2,35.4,29.81,West,270,13.0,16.0,44,0.00,,,0.00,meteohub,2013-06-05 23:42:00,
2013-06-05 16:47:00,57.0,36.0,29.81,West,270,15.0,16.0,45,0.00,,,0.00,meteohub,2013-06-05 23:47:00,
2013-06-05 16:52:00,56.7,35.6,29.81,NW,315,16.0,16.0,45,0.00,,,0.00,meteohub,2013-06-05 23:52:00,
2013-06-05 16:57:00,56.7,36.1,29.81,West,270,13.0,16.0,46,0.00,,,0.00,meteohub,2013-06-05 23:57:00,
2013-06-05 17:02:00,56.5,35.4,29.81,SW,225,15.0,16.0,45,0.00,,,0.00,meteohub,2013-06-06 00:02:00,
2013-06-05 17:08:00,56.1,35.6,29.80,NW,315,12.0,16.0,46,0.00,,,0.00,meteohub,2013-06-06 00:08:00,
2013-06-05 17:13:00,56.3,35.8,29.80,West,270,9.0,15.0,46,0.00,,,0.00,meteohub,2013-06-06 00:13:00,
2013-06-05 17:18:00,56.3,35.8,29.80,NW,315,8.0,15.0,46,0.00,,,0.00,meteohub,2013-06-06 00:18:00,
2013-06-05 17:23:00,56.5,36.0,29.80,West,270,11.0,17.0,46,0.00,,,0.00,meteohub,2013-06-06 00:23:00,
2013-06-05 17:28:00,56.3,35.2,29.80,North,0,13.0,17.0,45,0.00,,,0.00,meteohub,2013-06-06 00:28:00,
2013-06-05 17:33:00,56.3,35.8,29.80,NW,315,15.0,17.0,46,0.00,,,0.00,meteohub,2013-06-06 00:33:00,
2013-06-05 17:38:00,56.1,35.6,29.80,West,270,11.0,14.0,46,0.00,,,0.00,meteohub,2013-06-06 00:38:00,
2013-06-05 17:43:00,56.1,35.6,29.80,NW,315,10.0,15.0,46,0.00,,,0.00,meteohub,2013-06-06 00:43:00,
2013-06-05 17:49:00,56.3,35.8,29.80,NW,315,14.0,15.0,46,0.00,,,0.00,meteohub,2013-06-06 00:49:00,
2013-06-05 17:54:00,55.8,35.2,29.80,West,270,13.0,13.0,46,0.00,,,0.00,meteohub,2013-06-06 00:54:00,
2013-06-05 17:59:00,55.8,35.2,29.80,NW,315,14.0,15.0,46,0.00,,,0.00,meteohub,2013-06-06 00:59:00,
2013-06-05 18:04:00,55.6,35.1,29.80,West,270,14.0,15.0,46,0.00,,,0.00,meteohub,2013-06-06 01:04:00,
2013-06-05 18:10:00,55.8,35.2,29.80,NW,315,10.0,15.0,46,0.00,,,0.00,meteohub,2013-06-06 01:10:00,
2013-06-05 18:15:00,55.8,35.2,29.80,NW,315,13.0,15.0,46,0.00,,,0.00,meteohub,2013-06-06 01:15:00,
2013-06-05 18:20:00,55.6,35.1,29.80,West,270,13.0,14.0,46,0.00,,,0.00,meteohub,2013-06-06 01:20:00,
2013-06-05 18:25:00,55.4,34.9,29.80,NW,315,15.0,15.0,46,0.00,,,0.00,meteohub,2013-06-06 01:25:00,
2013-06-05 18:30:00,55.4,34.9,29.80,West,270,10.0,15.0,46,0.00,,,0.00,meteohub,2013-06-06 01:30:00,
2013-06-05 18:35:00,55.4,34.9,29.80,West,270,10.0,15.0,46,0.00,,,0.00,meteohub,2013-06-06 01:35:00,
2013-06-05 18:40:00,55.6,35.1,29.80,West,270,12.0,15.0,46,0.00,,,0.00,meteohub,2013-06-06 01:40:00,
2013-06-05 18:45:00,55.4,34.9,29.80,SW,225,8.0,14.0,46,0.00,,,0.00,meteohub,2013-06-06 01:45:00,
2013-06-05 18:51:00,55.4,34.9,29.80,West,270,8.0,14.0,46,0.00,,,0.00,meteohub,2013-06-06 01:51:00,
2013-06-05 18:56:00,55.2,34.2,29.80,West,270,10.0,13.0,45,0.00,,,0.00,meteohub,2013-06-06 01:56:00,
2013-06-05 19:01:00,55.2,34.2,29.80,West,270,9.0,13.0,45,0.00,,,0.00,meteohub,2013-06-06 02:01:00,
2013-06-05 19:06:00,55.0,34.7,29.80,NW,315,11.0,13.0,46,0.00,,,0.00,meteohub,2013-06-06 02:06:00,
2013-06-05 19:11:00,55.0,34.7,29.80,West,270,8.0,13.0,46,0.00,,,0.00,meteohub,2013-06-06 02:11:00,
2013-06-05 19:16:00,54.9,34.0,29.80,West,270,9.0,11.0,45,0.00,,,0.00,meteohub,2013-06-06 02:16:00,
2013-06-05 19:21:00,55.0,34.2,29.80,SW,225,8.0,11.0,45,0.00,,,0.00,meteohub,2013-06-06 02:21:00,
2013-06-05 19:26:00,55.0,34.2,29.80,NW,315,9.0,11.0,45,0.00,,,0.00,meteohub,2013-06-06 02:26:00,
2013-06-05 19:32:00,54.9,33.4,29.81,West,270,9.0,11.0,44,0.00,,,0.00,meteohub,2013-06-06 02:32:00,
2013-06-05 19:37:00,54.9,34.0,29.81,NW,315,8.0,11.0,45,0.00,,,0.00,meteohub,2013-06-06 02:37:00,
2013-06-05 19:42:00,54.9,34.0,29.81,NW,315,8.0,11.0,45,0.00,,,0.00,meteohub,2013-06-06 02:42:00,
2013-06-05 19:47:00,54.7,33.8,29.81,West,270,9.0,11.0,45,0.00,,,0.00,meteohub,2013-06-06 02:47:00,
2013-06-05 19:52:00,54.7,33.8,29.81,West,270,6.0,11.0,45,0.00,,,0.00,meteohub,2013-06-06 02:52:00,
2013-06-05 19:58:00,54.7,33.8,29.81,West,270,8.0,11.0,45,0.00,,,0.00,meteohub,2013-06-06 02:58:00,
2013-06-05 20:03:00,54.7,33.8,29.81,West,270,9.0,11.0,45,0.00,,,0.00,meteohub,2013-06-06 03:03:00,
2013-06-05 20:08:00,54.5,33.6,29.81,NW,315,11.0,11.0,45,0.00,,,0.00,meteohub,2013-06-06 03:08:00,
2013-06-05 20:13:00,54.5,33.6,29.81,West,270,8.0,11.0,45,0.00,,,0.00,meteohub,2013-06-06 03:13:00,
2013-06-05 20:18:00,54.5,33.6,29.81,NW,315,6.0,11.0,45,0.00,,,0.00,meteohub,2013-06-06 03:18:00,
2013-06-05 20:23:00,54.3,34.0,29.81,West,270,4.0,11.0,46,0.00,,,0.00,meteohub,2013-06-06 03:23:00,
2013-06-05 20:28:00,54.3,33.4,29.82,NW,315,10.0,10.0,45,0.00,,,0.00,meteohub,2013-06-06 03:28:00,
2013-06-05 20:33:00,54.1,33.3,29.82,NW,315,6.0,10.0,45,0.00,,,0.00,meteohub,2013-06-06 03:33:00,
2013-06-05 20:39:00,54.1,33.3,29.81,West,270,7.0,10.0,45,0.00,,,0.00,meteohub,2013-06-06 03:39:00,
2013-06-05 20:44:00,54.1,33.3,29.81,West,270,5.0,10.0,45,0.00,,,0.00,meteohub,2013-06-06 03:44:00,
2013-06-05 20:49:00,54.1,33.8,29.81,West,270,7.0,8.0,46,0.00,,,0.00,meteohub,2013-06-06 03:49:00,
2013-06-05 20:55:00,54.1,33.3,29.81,West,270,7.0,8.0,45,0.00,,,0.00,meteohub,2013-06-06 03:55:00,
2013-06-05 21:00:00,54.0,33.1,29.81,West,270,7.0,8.0,45,0.00,,,0.00,meteohub,2013-06-06 04:00:00,
2013-06-05 21:01:00,54.0,33.1,29.81,West,270,7.0,8.0,45,0.00,,,0.00,meteohub,2013-06-06 04:01:00,
2013-06-05 21:02:00,54.0,33.1,29.81,West,270,7.0,8.0,45,0.00,,,0.00,meteohub,2013-06-06 04:02:00,
2013-06-05 21:04:00,54.0,33.1,29.81,West,270,7.0,8.0,45,0.00,,,0.00,meteohub,2013-06-06 04:04:00,
2013-06-05 21:07:00,54.0,33.1,29.81,West,270,7.0,8.0,45,0.00,,,0.00,meteohub,2013-06-06 04:07:00,
2013-06-05 21:12:00,54.1,33.8,29.81,West,270,7.0,8.0,46,0.00,,,0.00,meteohub,2013-06-06 04:12:00,
2013-06-05 21:17:00,54.0,33.1,29.81,West,270,6.0,8.0,45,0.00,,,0.00,meteohub,2013-06-06 04:17:00,
2013-06-05 21:22:00,54.1,34.3,29.81,NW,315,4.0,8.0,47,0.00,,,0.00,meteohub,2013-06-06 04:22:00,
2013-06-05 21:27:00,54.0,33.6,29.81,West,270,3.0,8.0,46,0.00,,,0.00,meteohub,2013-06-06 04:27:00,
2013-06-05 21:32:00,54.0,33.6,29.81,West,270,6.0,8.0,46,0.00,,,0.00,meteohub,2013-06-06 04:32:00,
2013-06-05 21:37:00,54.0,33.6,29.81,West,270,5.0,6.0,46,0.00,,,0.00,meteohub,2013-06-06 04:37:00,
2013-06-05 21:42:00,54.0,33.6,29.81,NW,315,5.0,6.0,46,0.00,,,0.00,meteohub,2013-06-06 04:42:00,
2013-06-05 21:48:00,54.0,33.6,29.81,SW,225,4.0,6.0,46,0.00,,,0.00,meteohub,2013-06-06 04:48:00,
2013-06-05 21:53:00,54.0,33.6,29.81,West,270,7.0,7.0,46,0.00,,,0.00,meteohub,2013-06-06 04:53:00,
2013-06-05 21:58:00,54.0,33.6,29.82,West,270,6.0,7.0,46,0.00,,,0.00,meteohub,2013-06-06 04:58:00,
2013-06-05 22:03:00,53.6,33.3,29.81,NW,315,4.0,8.0,46,0.00,,,0.00,meteohub,2013-06-06 05:03:00,
2013-06-05 22:08:00,53.6,33.3,29.81,West,270,6.0,8.0,46,0.00,,,0.00,meteohub,2013-06-06 05:08:00,
2013-06-05 22:13:00,53.8,34.0,29.81,NW,315,4.0,8.0,47,0.00,,,0.00,meteohub,2013-06-06 05:13:00,
2013-06-05 22:18:00,53.6,33.8,29.81,West,270,6.0,8.0,47,0.00,,,0.00,meteohub,2013-06-06 05:18:00,
2013-06-05 22:23:00,53.6,34.3,29.81,West,270,6.0,7.0,48,0.00,,,0.00,meteohub,2013-06-06 05:23:00,
2013-06-05 22:29:00,53.6,33.8,29.81,West,270,4.0,6.0,47,0.00,,,0.00,meteohub,2013-06-06 05:29:00,
2013-06-05 22:34:00,53.6,33.3,29.81,West,270,4.0,8.0,46,0.00,,,0.00,meteohub,2013-06-06 05:34:00,
2013-06-05 22:39:00,53.6,33.8,29.81,West,270,4.0,8.0,47,0.00,,,0.00,meteohub,2013-06-06 05:39:00,
2013-06-05 22:44:00,53.6,33.8,29.81,West,270,6.0,8.0,47,0.00,,,0.00,meteohub,2013-06-06 05:44:00,
2013-06-05 22:49:00,53.6,33.3,29.81,West,270,7.0,8.0,46,0.00,,,0.00,meteohub,2013-06-06 05:49:00,
2013-06-05 22:54:00,53.4,33.6,29.81,NW,315,4.0,7.0,47,0.00,,,0.00,meteohub,2013-06-06 05:54:00,
2013-06-05 23:00:00,53.4,33.6,29.81,NW,315,2.0,7.0,47,0.00,,,0.00,meteohub,2013-06-06 06:00:00,
2013-06-05 23:05:00,53.4,33.6,29.81,NW,315,2.0,7.0,47,0.00,,,0.00,meteohub,2013-06-06 06:05:00,
2013-06-05 23:10:00,53.4,34.2,29.81,SW,225,3.0,6.0,48,0.00,,,0.00,meteohub,2013-06-06 06:10:00,
2013-06-05 23:15:00,53.4,33.6,29.81,NW,315,4.0,5.0,47,0.00,,,0.00,meteohub,2013-06-06 06:15:00,
2013-06-05 23:20:00,53.4,33.6,29.81,West,270,4.0,5.0,47,0.00,,,0.00,meteohub,2013-06-06 06:20:00,
2013-06-05 23:25:00,53.4,33.6,29.81,SW,225,2.0,5.0,47,0.00,,,0.00,meteohub,2013-06-06 06:25:00,
2013-06-05 23:30:00,53.4,33.6,29.81,NW,315,2.0,5.0,47,0.00,,,0.00,meteohub,2013-06-06 06:30:00,
2013-06-05 23:35:00,53.4,34.2,29.81,West,270,3.0,5.0,48,0.00,,,0.00,meteohub,2013-06-06 06:35:00,
2013-06-05 23:41:00,53.4,33.6,29.81,West,270,2.0,4.0,47,0.00,,,0.00,meteohub,2013-06-06 06:41:00,
2013-06-05 23:46:00,53.4,34.2,29.81,West,270,4.0,4.0,48,0.00,,,0.00,meteohub,2013-06-06 06:46:00,
2013-06-05 23:51:00,53.4,33.6,29.81,NW,315,2.0,5.0,47,0.00,,,0.00,meteohub,2013-06-06 06:51:00,
2013-06-05 23:56:00,53.4,34.2,29.81,NW,315,2.0,5.0,48,0.00,,,0.00,meteohub,2013-06-06 06:56:00,